Weather History for Georgetown, SC

Change the Weather History Date:

Thursday, January 30, 2014

  Actual Average Record
Temperature  
Mean Temperature 29 °F -  
Max Temperature 32 °F 60 °F 73 °F (2013)
Min Temperature 26 °F 36 °F 26 °F (2012)
Degree Days  
Heating Degree Days 36    
Moisture  
Dew Point 25 °F    
Average Humidity 84    
Maximum Humidity 93    
Minimum Humidity 75    
Precipitation  
Precipitation 0.00 in - - ()
Sea Level Pressure  
Sea Level Pressure 30.32 in    
Wind  
Wind Speed 5 mph (North)    
Max Wind Speed 9 mph    
Max Gust Speed -    
Visibility 10 miles    
Events      
Averages and records for this station are not official NWS values.
T = Trace of Precipitation, MM = Missing Value Source: NWS Daily Summary

Daily Weather History Graph

Daily Weather History Graph

Search for Another Location

Airport:

Trip Planner

Search our weather history database for the weather conditions in past years. The results will help you decide how hot, cold, wet, or windy it might be!

Date:

Astronomy

Jan. 30, 2014 Rise Set
Actual Time 7:14 AM EST 5:47 PM EST
Civil Twilight 6:48 AM EST 6:13 PM EST
Nautical Twilight 6:18 AM EST 6:43 PM EST
Astronomical Twilight 5:49 AM EST 7:12 PM EST
Moon 6:40 AM EST (1/30) 5:53 PM EST (1/30)
Length of Visible Light 11h 25m
Length of Day
10h 32m
Waning Crescent, 0% of the Moon is Illuminated
Jan 30
Waning Crescent
Jan 30
New
Feb 6
First Quarter
Feb 14
Full
Feb 22
Last Quarter

Hourly Weather History & Observations

Time (EST) Temp. Windchill Dew Point Humidity Pressure Visibility Wind Dir Wind Speed Gust Speed Precip Events Conditions
12:15 AM 26.6 °F 22.6 °F 23.0 °F 86% 30.37 in 10.0 mi NNE 3.5 mph - N/A   Mostly Cloudy
12:35 AM 26.6 °F 22.6 °F 23.0 °F 86% 30.37 in 10.0 mi North 3.5 mph - N/A   Scattered Clouds
12:55 AM 26.6 °F 21.2 °F 23.0 °F 86% 30.37 in 10.0 mi North 4.6 mph - N/A   Clear
1:15 AM 26.6 °F 22.6 °F 23.0 °F 86% 30.37 in 10.0 mi NE 3.5 mph - N/A   Clear
1:35 AM 26.6 °F 22.6 °F 23.0 °F 86% 30.37 in 10.0 mi NNE 3.5 mph - N/A   Clear
1:55 AM 26.6 °F 21.2 °F 23.0 °F 86% 30.37 in 10.0 mi North 4.6 mph - N/A   Clear
2:15 AM 26.6 °F 21.2 °F 23.0 °F 86% 30.37 in 10.0 mi North 4.6 mph - N/A   Clear
2:35 AM 26.6 °F 20.0 °F 23.0 °F 86% 30.36 in 10.0 mi NNE 5.8 mph - N/A   Mostly Cloudy
2:55 AM 26.6 °F 19.1 °F 23.0 °F 86% 30.34 in 10.0 mi NNE 6.9 mph - N/A   Overcast
3:15 AM 26.6 °F 20.0 °F 21.2 °F 80% 30.34 in 10.0 mi North 5.8 mph - N/A   Overcast
3:35 AM 26.6 °F 18.2 °F 21.2 °F 80% 30.34 in 10.0 mi North 8.1 mph - N/A   Overcast
3:55 AM 26.6 °F 18.2 °F 21.2 °F 80% 30.34 in 10.0 mi NNE 8.1 mph - N/A   Overcast
4:15 AM 26.6 °F 19.1 °F 21.2 °F 80% 30.35 in 10.0 mi NNE 6.9 mph - N/A   Overcast
4:35 AM 26.6 °F 19.1 °F 21.2 °F 80% 30.35 in 10.0 mi NNE 6.9 mph - N/A   Overcast
4:55 AM 26.6 °F 19.1 °F 21.2 °F 80% 30.35 in 10.0 mi NNE 6.9 mph - N/A   Overcast
5:15 AM 26.6 °F 19.1 °F 21.2 °F 80% 30.34 in 10.0 mi NNE 6.9 mph - N/A   Overcast
5:35 AM 26.6 °F 21.2 °F 23.0 °F 86% 30.34 in 10.0 mi North 4.6 mph - N/A   Overcast
5:55 AM 26.6 °F 19.1 °F 21.2 °F 80% 30.34 in 10.0 mi NNE 6.9 mph - N/A   Overcast
6:15 AM 26.6 °F 18.2 °F 21.2 °F 80% 30.35 in 10.0 mi NNE 8.1 mph - N/A   Overcast
6:35 AM 26.6 °F 20.0 °F 21.2 °F 80% 30.35 in 10.0 mi North 5.8 mph - N/A   Overcast
6:55 AM 26.6 °F 20.0 °F 21.2 °F 80% 30.37 in 10.0 mi NNE 5.8 mph - N/A   Overcast
7:15 AM 26.6 °F 19.1 °F 21.2 °F 80% 30.37 in 10.0 mi NNE 6.9 mph - N/A   Overcast
7:35 AM 26.6 °F 20.0 °F 21.2 °F 80% 30.37 in 10.0 mi NNE 5.8 mph - N/A   Overcast
7:55 AM 26.6 °F 20.0 °F 21.2 °F 80% 30.37 in 10.0 mi NNE 5.8 mph - N/A   Overcast
8:15 AM 26.6 °F 19.1 °F 21.2 °F 80% 30.37 in 10.0 mi NNE 6.9 mph - N/A   Overcast
8:35 AM 26.6 °F 20.0 °F 23.0 °F 86% 30.37 in 10.0 mi NNE 5.8 mph - N/A   Overcast
8:55 AM 26.6 °F 17.5 °F 23.0 °F 86% 30.38 in 10.0 mi North 9.2 mph - N/A   Overcast
9:15 AM 28.4 °F 21.2 °F 23.0 °F 80% 30.39 in 10.0 mi North 6.9 mph - N/A   Overcast
9:35 AM 28.4 °F 23.3 °F 23.0 °F 80% 30.39 in 10.0 mi NNE 4.6 mph - N/A   Overcast
9:55 AM 28.4 °F 21.2 °F 23.0 °F 80% 30.39 in 10.0 mi NNE 6.9 mph - N/A   Overcast
10:15 AM 28.4 °F 21.2 °F 23.0 °F 80% 30.39 in 10.0 mi NNE 6.9 mph - N/A   Overcast
10:35 AM 28.4 °F 20.4 °F 23.0 °F 80% 30.39 in 10.0 mi NNE 8.1 mph - N/A   Overcast
10:55 AM 28.4 °F 19.7 °F 23.0 °F 80% 30.38 in 10.0 mi NNE 9.2 mph - N/A   Overcast
11:15 AM 28.4 °F 20.4 °F 23.0 °F 80% 30.37 in 10.0 mi North 8.1 mph - N/A   Overcast
11:35 AM 30.2 °F 24.3 °F 24.8 °F 80% 30.37 in 10.0 mi North 5.8 mph - N/A   Overcast
11:55 AM 30.2 °F 23.4 °F 23.0 °F 75% 30.36 in 10.0 mi North 6.9 mph - N/A   Overcast
12:15 PM 30.2 °F 25.4 °F 24.8 °F 80% 30.35 in 10.0 mi North 4.6 mph - N/A   Overcast
12:35 PM 30.2 °F 23.4 °F 23.0 °F 75% 30.34 in 10.0 mi North 6.9 mph - N/A   Overcast
12:55 PM 30.2 °F 25.4 °F 24.8 °F 80% 30.32 in 10.0 mi North 4.6 mph - N/A   Overcast
1:15 PM 30.2 °F 25.4 °F 24.8 °F 80% 30.31 in 10.0 mi North 4.6 mph - N/A   Overcast
1:35 PM 30.2 °F 25.4 °F 23.0 °F 75% 30.30 in 10.0 mi North 4.6 mph - N/A   Overcast
1:55 PM 32.0 °F 28.7 °F 24.8 °F 75% 30.29 in 10.0 mi North 3.5 mph - N/A   Overcast
2:15 PM 32.0 °F - 24.8 °F 75% 30.29 in 10.0 mi Calm Calm - N/A   Overcast
2:35 PM 32.0 °F 28.7 °F 24.8 °F 75% 30.29 in 10.0 mi NNW 3.5 mph - N/A   Overcast
2:55 PM 32.0 °F 27.5 °F 26.6 °F 80% 30.28 in 10.0 mi North 4.6 mph - N/A   Overcast
3:15 PM 32.0 °F 27.5 °F 24.8 °F 75% 30.28 in 10.0 mi North 4.6 mph - N/A   Overcast
3:35 PM 32.0 °F 27.5 °F 26.6 °F 80% 30.28 in 10.0 mi North 4.6 mph - N/A   Overcast
3:55 PM 30.2 °F 24.3 °F 24.8 °F 80% 30.28 in 10.0 mi North 5.8 mph - N/A   Overcast
4:15 PM 30.2 °F 25.4 °F 26.6 °F 86% 30.27 in 10.0 mi North 4.6 mph - N/A   Overcast
4:35 PM 30.2 °F 24.3 °F 26.6 °F 86% 30.26 in 10.0 mi North 5.8 mph - N/A   Overcast
4:55 PM 32.0 °F 25.6 °F 26.6 °F 80% 30.25 in 10.0 mi North 6.9 mph - N/A   Overcast
5:15 PM 30.2 °F 25.4 °F 26.6 °F 86% 30.27 in 10.0 mi North 4.6 mph - N/A   Overcast
5:35 PM 32.0 °F 27.5 °F 26.6 °F 80% 30.26 in 10.0 mi North 4.6 mph - N/A   Overcast
5:55 PM 30.2 °F - 28.4 °F 93% 30.25 in 10.0 mi Calm Calm - N/A   Overcast
6:15 PM 30.2 °F - 28.4 °F 93% 30.26 in 10.0 mi Calm Calm - N/A   Overcast
6:35 PM 32.0 °F 27.5 °F 28.4 °F 87% 30.24 in 10.0 mi NNE 4.6 mph - N/A   Overcast
6:55 PM 32.0 °F 27.5 °F 28.4 °F 87% 30.25 in 10.0 mi North 4.6 mph - N/A   Overcast
7:15 PM 32.0 °F 28.7 °F 28.4 °F 87% 30.24 in 10.0 mi NNE 3.5 mph - N/A   Overcast
7:35 PM 32.0 °F 27.5 °F 28.4 °F 87% 30.24 in 10.0 mi NNE 4.6 mph - N/A   Overcast
7:55 PM 32.0 °F 27.5 °F 30.2 °F 93% 30.23 in 10.0 mi North 4.6 mph - N/A   Overcast
8:15 PM 32.0 °F 26.4 °F 30.2 °F 93% 30.23 in 7.0 mi North 5.8 mph - N/A   Overcast
8:35 PM 32.0 °F 27.5 °F 30.2 °F 93% 30.25 in 10.0 mi North 4.6 mph - N/A   Overcast
8:55 PM 32.0 °F 26.4 °F 30.2 °F 93% 30.26 in 10.0 mi North 5.8 mph - N/A   Overcast
9:15 PM 32.0 °F 27.5 °F 30.2 °F 93% 30.27 in 7.0 mi NNW 4.6 mph - N/A   Overcast
9:35 PM 32.0 °F 26.4 °F 30.2 °F 93% 30.27 in 10.0 mi North 5.8 mph - N/A   Overcast
9:55 PM 32.0 °F 28.7 °F 30.2 °F 93% 30.28 in 10.0 mi NW 3.5 mph - N/A   Overcast
10:15 PM 32.0 °F 28.7 °F 30.2 °F 93% 30.26 in 10.0 mi North 3.5 mph - N/A   Overcast
10:35 PM 32.0 °F - 30.2 °F 93% 30.24 in 10.0 mi Calm Calm - N/A   Overcast
10:55 PM 32.0 °F 28.7 °F 30.2 °F 93% 30.23 in 10.0 mi NE 3.5 mph - N/A   Mostly Cloudy
11:15 PM 32.0 °F 28.7 °F 30.2 °F 93% 30.23 in 10.0 mi ENE 3.5 mph - N/A   Mostly Cloudy
11:35 PM 32.0 °F 27.5 °F 30.2 °F 93% 30.21 in 10.0 mi NNE 4.6 mph - N/A   Overcast
11:55 PM 32.0 °F 28.7 °F 30.2 °F 93% 30.22 in 10.0 mi North 3.5 mph - N/A   Overcast